Fort Stockton, TX

11:25 AM CST on February 28, 2017 (GMT -0600)
Fort Stockton-Pecos County

Weather History for KFST - July, 2013

Change the Weather History Date:

Sunday, July 7, 2013

  Actual Average Record
Temperature  
Mean Temperature 81 °F -  
Max Temperature 93 °F 93 °F 107 °F (2016)
Min Temperature 71 °F 68 °F 64 °F (2007)
Cooling Degree Days 16    
Growing Degree Days 31 (Base 50)    
Moisture  
Dew Point 54 °F    
Average Humidity 38    
Maximum Humidity 64    
Minimum Humidity 25    
Precipitation  
Precipitation 0.00 in - - ()
Sea Level Pressure  
Sea Level Pressure 29.83 in    
Wind  
Wind Speed 14 mph (SE)    
Max Wind Speed 18 mph    
Max Gust Speed 30 mph    
Visibility 10 miles    
Events      
Averages and records for this station are not official NWS values.
T = Trace of Precipitation, MM = Missing Value Source: NWS Daily Summary

Daily Weather History Graph

Daily Weather History Graph

Search for Another Location

Airport or City:

Trip Planner

Search our weather history database for the weather conditions in past years. The results will help you decide how hot, cold, wet, or windy it might be!

Date:

Astronomy

Jul. 07, 2013 Rise Set
Actual Time 6:54 AM CDT 8:58 PM CDT
Civil Twilight 6:27 AM CDT 9:25 PM CDT
Nautical Twilight 5:53 AM CDT 9:59 PM CDT
Astronomical Twilight 5:17 AM CDT 10:35 PM CDT
Moon 6:28 AM CDT (7/7) 8:29 PM CDT (7/7)
Length of Visible Light 14h 58m
Length of Day
14h 03m
Waning Crescent, 0% of the Moon is Illuminated
Jul 7
Waning Crescent
Jul 8
New
Jul 15
First Quarter
Jul 22
Full
Jul 29
Last Quarter

Hourly Weather History & Observations

Time (CDT) Temp. Heat Index Dew Point Humidity Pressure Visibility Wind Dir Wind Speed Gust Speed Precip Events Conditions
12:53 AM 78.1 °F - 48.0 °F 35% 29.79 in 10.0 mi SE 15.0 mph 23.0 mph N/A   Clear
1:53 AM 77.0 °F - 48.9 °F 37% 29.78 in 10.0 mi SSE 12.7 mph - N/A   Clear
2:53 AM 77.0 °F - 48.0 °F 36% 29.77 in 10.0 mi SE 15.0 mph - N/A   Clear
3:53 AM 75.9 °F - 48.9 °F 38% 29.77 in 10.0 mi SE 12.7 mph - N/A   Clear
4:53 AM 75.0 °F - 51.1 °F 43% 29.78 in 10.0 mi SSE 13.8 mph - N/A   Clear
5:53 AM 73.0 °F - 53.1 °F 49% 29.79 in 10.0 mi SE 11.5 mph 19.6 mph N/A   Clear
6:53 AM 71.1 °F - 55.9 °F 59% 29.82 in 10.0 mi SE 9.2 mph - N/A   Clear
7:53 AM 73.0 °F - 60.1 °F 64% 29.85 in 10.0 mi SE 12.7 mph 20.7 mph N/A   Clear
8:53 AM 75.9 °F - 62.1 °F 62% 29.86 in 10.0 mi SE 17.3 mph 25.3 mph N/A   Clear
9:53 AM 80.1 °F 81.2 °F 62.1 °F 54% 29.88 in 10.0 mi SSE 16.1 mph 29.9 mph N/A   Clear
10:53 AM 84.0 °F 83.8 °F 59.0 °F 43% 29.87 in 10.0 mi SSE 16.1 mph 25.3 mph N/A   Clear
11:53 AM 87.1 °F 85.9 °F 57.0 °F 36% 29.86 in 10.0 mi SE 15.0 mph 21.9 mph N/A   Clear
12:53 PM 89.1 °F 87.1 °F 55.0 °F 31% 29.86 in 10.0 mi ESE 18.4 mph 26.5 mph N/A   Clear
1:53 PM 90.0 °F 87.9 °F 55.0 °F 30% 29.84 in 10.0 mi SE 13.8 mph 27.6 mph N/A   Clear
2:53 PM 91.0 °F 88.7 °F 54.0 °F 28% 29.83 in 10.0 mi ESE 16.1 mph 23.0 mph N/A   Clear
3:53 PM 91.9 °F 89.5 °F 53.1 °F 27% 29.81 in 10.0 mi SE 15.0 mph 24.2 mph N/A   Clear
4:53 PM 91.0 °F - 51.1 °F 25% 29.81 in 10.0 mi ESE 17.3 mph 27.6 mph N/A   Clear
5:53 PM 91.0 °F - 52.0 °F 26% 29.80 in 10.0 mi ESE 13.8 mph 26.5 mph N/A   Clear
6:53 PM 90.0 °F - 51.1 °F 26% 29.80 in 10.0 mi SE 13.8 mph 26.5 mph N/A   Clear
7:53 PM 89.1 °F - 52.0 °F 28% 29.81 in 10.0 mi ESE 15.0 mph 23.0 mph N/A   Clear
8:53 PM 86.0 °F 84.0 °F 53.1 °F 32% 29.83 in 10.0 mi ESE 17.3 mph 24.2 mph N/A   Clear
9:53 PM 84.0 °F 82.6 °F 54.0 °F 35% 29.85 in 10.0 mi SE 13.8 mph - N/A   Clear
10:53 PM 82.0 °F 81.3 °F 54.0 °F 38% 29.87 in 10.0 mi SE 11.5 mph - N/A   Clear
11:53 PM 80.1 °F 80.0 °F 54.0 °F 40% 29.88 in 10.0 mi SE 8.1 mph - N/A   Clear